Time,TemperatureF,DewpointF,PressureIn,WindDirection,WindDirectionDegrees,WindSpeedMPH,WindSpeedGustMPH,Humidity,HourlyPrecipIn,Conditions,Clouds,dailyrainin,SoftwareType,DateUTC
2013-01-23 00:05:00,8.6,1.7,30.32,West,271,7.0,7.0,73,0.00,,,0.00,Wunderground v.1.15,2013-01-23 05:05:00,
2013-01-23 00:16:00,8.6,1.7,30.33,West,279,6.0,7.0,73,0.00,,,0.00,Wunderground v.1.15,2013-01-23 05:16:00,
2013-01-23 00:26:00,8.5,1.6,30.33,West,272,6.0,6.0,73,0.00,,,0.00,Wunderground v.1.15,2013-01-23 05:26:00,
2013-01-23 00:36:00,8.4,1.5,30.33,WNW,300,7.0,7.0,73,0.00,,,0.00,Wunderground v.1.15,2013-01-23 05:36:00,
2013-01-23 00:46:00,8.3,1.4,30.33,West,261,6.0,6.0,73,0.00,,,0.00,Wunderground v.1.15,2013-01-23 05:46:00,
2013-01-23 01:06:00,8.2,1.6,30.32,West,269,6.0,6.0,74,0.00,,,0.00,Wunderground v.1.15,2013-01-23 06:06:00,
2013-01-23 01:15:00,8.1,1.5,30.32,West,275,4.0,4.0,74,0.00,,,0.00,Wunderground v.1.15,2013-01-23 06:15:00,
2013-01-23 01:25:00,8.1,1.8,30.32,West,274,3.0,4.0,75,0.00,,,0.00,Wunderground v.1.15,2013-01-23 06:25:00,
2013-01-23 01:36:00,8.0,1.7,30.32,West,277,4.0,4.0,75,0.00,,,0.00,Wunderground v.1.15,2013-01-23 06:36:00,
2013-01-23 01:45:00,7.9,1.6,30.32,WNW,288,2.0,2.0,75,0.00,,,0.00,Wunderground v.1.15,2013-01-23 06:45:00,
2013-01-23 01:56:00,8.0,2.0,30.32,WNW,284,3.0,3.0,76,0.00,,,0.00,Wunderground v.1.15,2013-01-23 06:56:00,
2013-01-23 02:05:00,8.0,2.0,30.33,NW,305,3.0,3.0,76,0.00,,,0.00,Wunderground v.1.15,2013-01-23 07:05:00,
2013-01-23 02:16:00,8.0,2.0,30.33,WNW,300,3.0,3.0,76,0.00,,,0.00,Wunderground v.1.15,2013-01-23 07:16:00,
2013-01-23 02:25:00,7.9,1.9,30.33,WNW,294,3.0,3.0,76,0.00,,,0.00,Wunderground v.1.15,2013-01-23 07:25:00,
2013-01-23 02:35:00,7.8,1.8,30.33,NW,304,3.0,3.0,76,0.00,,,0.00,Wunderground v.1.15,2013-01-23 07:35:00,
2013-01-23 02:46:00,7.7,1.7,30.33,West,260,2.0,3.0,76,0.00,,,0.00,Wunderground v.1.15,2013-01-23 07:46:00,
2013-01-23 02:56:00,7.6,1.6,30.33,WNW,298,3.0,3.0,76,0.00,,,0.00,Wunderground v.1.15,2013-01-23 07:56:00,
2013-01-23 03:05:00,7.6,1.6,30.33,WNW,284,3.0,3.0,76,0.00,,,0.00,Wunderground v.1.15,2013-01-23 08:05:00,
2013-01-23 03:16:00,7.6,1.6,30.33,West,278,2.0,2.0,76,0.00,,,0.00,Wunderground v.1.15,2013-01-23 08:16:00,
2013-01-23 03:25:00,7.5,1.8,30.33,WNW,302,1.0,1.0,77,0.00,,,0.00,Wunderground v.1.15,2013-01-23 08:25:00,
2013-01-23 03:36:00,7.4,1.7,30.32,WNW,298,2.0,2.0,77,0.00,,,0.00,Wunderground v.1.15,2013-01-23 08:36:00,
2013-01-23 03:46:00,7.3,1.3,30.32,WNW,284,2.0,2.0,76,0.00,,,0.00,Wunderground v.1.15,2013-01-23 08:46:00,
2013-01-23 03:56:00,7.3,1.3,30.32,West,281,2.0,2.0,76,0.00,,,0.00,Wunderground v.1.15,2013-01-23 08:56:00,
2013-01-23 04:05:00,7.3,1.3,30.32,WNW,287,2.0,2.0,76,0.00,,,0.00,Wunderground v.1.15,2013-01-23 09:05:00,
2013-01-23 04:16:00,7.3,1.3,30.32,WNW,288,2.0,2.0,76,0.00,,,0.00,Wunderground v.1.15,2013-01-23 09:16:00,
2013-01-23 04:25:00,7.3,1.0,30.32,WNW,297,2.0,2.0,75,0.00,,,0.00,Wunderground v.1.15,2013-01-23 09:25:00,
2013-01-23 04:35:00,7.3,1.3,30.32,West,279,2.0,2.0,76,0.00,,,0.00,Wunderground v.1.15,2013-01-23 09:35:00,
2013-01-23 04:46:00,7.2,1.2,30.32,West,263,2.0,2.0,76,0.00,,,0.00,Wunderground v.1.15,2013-01-23 09:46:00,
2013-01-23 04:56:00,6.8,0.8,30.31,West,267,2.0,2.0,76,0.00,,,0.00,Wunderground v.1.15,2013-01-23 09:56:00,
2013-01-23 05:05:00,6.5,0.5,30.32,WSW,257,2.0,2.0,76,0.00,,,0.00,Wunderground v.1.15,2013-01-23 10:05:00,
2013-01-23 05:16:00,6.2,0.5,30.31,West,265,1.0,1.0,77,0.00,,,0.00,Wunderground v.1.15,2013-01-23 10:16:00,
2013-01-23 05:26:00,6.0,0.3,30.32,WSW,255,1.0,2.0,77,0.00,,,0.00,Wunderground v.1.15,2013-01-23 10:26:00,
2013-01-23 05:45:00,6.1,1.0,30.32,West,267,1.0,1.0,79,0.00,,,0.00,Wunderground v.1.15,2013-01-23 10:45:00,
2013-01-23 05:56:00,6.1,1.0,30.32,WNW,288,1.0,1.0,79,0.00,,,0.00,Wunderground v.1.15,2013-01-23 10:56:00,
2013-01-23 06:05:00,6.1,0.7,30.32,WNW,287,1.0,1.0,78,0.00,,,0.00,Wunderground v.1.15,2013-01-23 11:05:00,
2013-01-23 06:15:00,6.2,0.8,30.32,WNW,288,0.0,1.0,78,0.00,,,0.00,Wunderground v.1.15,2013-01-23 11:15:00,
2013-01-23 06:25:00,6.1,0.4,30.32,WNW,283,0.0,0.0,77,0.00,,,0.00,Wunderground v.1.15,2013-01-23 11:25:00,
2013-01-23 06:35:00,6.0,0.3,30.32,West,269,1.0,2.0,77,0.00,,,0.00,Wunderground v.1.15,2013-01-23 11:35:00,
2013-01-23 06:46:00,5.9,0.5,30.32,West,268,1.0,1.0,78,0.00,,,0.00,Wunderground v.1.15,2013-01-23 11:46:00,
2013-01-23 06:56:00,5.9,0.8,30.32,West,262,1.0,1.0,79,0.00,,,0.00,Wunderground v.1.15,2013-01-23 11:56:00,
2013-01-23 07:06:00,6.0,0.9,30.32,West,265,1.0,2.0,79,0.00,,,0.00,Wunderground v.1.15,2013-01-23 12:06:00,
2013-01-23 07:15:00,6.2,1.1,30.32,West,264,1.0,1.0,79,0.00,,,0.00,Wunderground v.1.15,2013-01-23 12:15:00,
2013-01-23 07:25:00,6.3,0.9,30.32,West,261,2.0,2.0,78,0.00,,,0.00,Wunderground v.1.15,2013-01-23 12:25:00,
2013-01-23 07:35:00,6.4,1.0,30.31,West,261,2.0,2.0,78,0.00,,,0.00,Wunderground v.1.15,2013-01-23 12:35:00,
2013-01-23 07:45:00,6.5,1.1,30.31,WSW,256,2.0,3.0,78,0.00,,,0.00,Wunderground v.1.15,2013-01-23 12:45:00,
2013-01-23 07:56:00,6.5,1.1,30.32,West,267,2.0,2.0,78,0.00,,,0.00,Wunderground v.1.15,2013-01-23 12:56:00,
2013-01-23 08:05:00,6.6,0.9,30.32,West,259,2.0,2.0,77,0.00,,,0.00,Wunderground v.1.15,2013-01-23 13:05:00,
2013-01-23 08:15:00,6.6,0.9,30.31,West,268,2.0,2.0,77,0.00,,,0.00,Wunderground v.1.15,2013-01-23 13:15:00,
2013-01-23 08:25:00,6.8,0.8,30.31,WSW,248,1.0,2.0,76,0.00,,,0.00,Wunderground v.1.15,2013-01-23 13:25:00,
2013-01-23 08:35:00,6.9,0.6,30.31,West,261,1.0,1.0,75,0.00,,,0.00,Wunderground v.1.15,2013-01-23 13:35:00,
2013-01-23 08:45:00,7.7,1.1,30.31,WSW,245,1.0,2.0,74,0.00,,,0.00,Wunderground v.1.15,2013-01-23 13:45:00,
2013-01-23 08:55:00,8.6,1.4,30.31,WSW,250,2.0,2.0,72,0.00,,,0.00,Wunderground v.1.15,2013-01-23 13:55:00,
2013-01-23 09:05:00,8.9,0.2,30.31,West,259,2.0,3.0,67,0.00,,,0.00,Wunderground v.1.15,2013-01-23 14:05:00,
2013-01-23 09:15:00,9.2,0.1,30.31,WSW,257,3.0,5.0,66,0.00,,,0.00,Wunderground v.1.15,2013-01-23 14:15:00,
2013-01-23 09:25:00,9.3,-0.4,30.31,West,259,4.0,4.0,64,0.00,,,0.00,Wunderground v.1.15,2013-01-23 14:25:00,
2013-01-23 09:36:00,9.7,-0.4,30.31,SW,226,4.0,4.0,63,0.00,,,0.00,Wunderground v.1.15,2013-01-23 14:36:00,
2013-01-23 09:46:00,10.1,0.7,30.31,WSW,248,3.0,6.0,65,0.00,,,0.00,Wunderground v.1.15,2013-01-23 14:46:00,
2013-01-23 09:57:00,10.5,1.7,30.31,West,274,3.0,3.0,67,0.00,,,0.00,Wunderground v.1.15,2013-01-23 14:57:00,
2013-01-23 10:06:00,10.8,2.6,30.31,SW,233,3.0,3.0,69,0.00,,,0.00,Wunderground v.1.15,2013-01-23 15:06:00,
2013-01-23 10:16:00,11.3,3.4,30.31,WSW,256,3.0,3.0,70,0.00,,,0.00,Wunderground v.1.15,2013-01-23 15:16:00,
2013-01-23 10:26:00,12.1,3.6,30.30,WSW,244,4.0,7.0,68,0.00,,,0.00,Wunderground v.1.15,2013-01-23 15:26:00,
2013-01-23 10:36:00,12.1,3.6,30.30,SSW,206,4.0,4.0,68,0.00,,,0.00,Wunderground v.1.15,2013-01-23 15:36:00,
2013-01-23 10:46:00,12.5,4.6,30.30,SW,214,4.0,6.0,70,0.00,,,0.00,Wunderground v.1.15,2013-01-23 15:46:00,
2013-01-23 10:56:00,12.6,5.0,30.30,WSW,240,5.0,5.0,71,0.00,,,0.00,Wunderground v.1.15,2013-01-23 15:56:00,
2013-01-23 11:06:00,13.2,6.5,30.30,SW,226,4.0,8.0,74,0.00,,,0.00,Wunderground v.1.15,2013-01-23 16:06:00,
2013-01-23 11:16:00,13.4,7.0,30.30,SSE,148,5.0,6.0,75,0.00,,,0.00,Wunderground v.1.15,2013-01-23 16:16:00,
2013-01-23 11:26:00,12.9,7.0,30.30,WSW,250,6.0,10.0,77,0.00,,,0.00,Wunderground v.1.15,2013-01-23 16:26:00,
2013-01-23 11:36:00,12.8,7.2,30.29,West,275,7.0,9.0,78,0.00,,,0.00,Wunderground v.1.15,2013-01-23 16:36:00,
2013-01-23 11:46:00,12.9,7.3,30.29,WSW,242,7.0,7.0,78,0.00,,,0.00,Wunderground v.1.15,2013-01-23 16:46:00,
2013-01-23 11:56:00,13.1,7.8,30.28,West,267,6.0,6.0,79,0.00,,,0.00,Wunderground v.1.15,2013-01-23 16:56:00,
2013-01-23 12:06:00,13.5,8.2,30.27,WSW,246,5.0,6.0,79,0.00,,,0.00,Wunderground v.1.15,2013-01-23 17:06:00,
2013-01-23 12:16:00,13.9,8.9,30.26,SSW,212,6.0,7.0,80,0.00,,,0.00,Wunderground v.1.15,2013-01-23 17:16:00,
2013-01-23 12:26:00,13.7,8.4,30.26,WSW,240,12.0,12.0,79,0.00,,,0.00,Wunderground v.1.15,2013-01-23 17:26:00,
2013-01-23 12:36:00,13.8,8.5,30.25,WSW,239,6.0,6.0,79,0.00,,,0.00,Wunderground v.1.15,2013-01-23 17:36:00,
2013-01-23 12:46:00,14.3,9.3,30.24,SW,226,6.0,6.0,80,0.00,,,0.00,Wunderground v.1.15,2013-01-23 17:46:00,
2013-01-23 12:56:00,14.7,9.1,30.23,WSW,243,6.0,6.0,78,0.00,,,0.00,Wunderground v.1.15,2013-01-23 17:56:00,
2013-01-23 13:06:00,15.0,9.4,30.23,SSW,212,7.0,7.0,78,0.00,,,0.00,Wunderground v.1.15,2013-01-23 18:06:00,
2013-01-23 13:16:00,15.3,9.7,30.22,SW,227,6.0,8.0,78,0.00,,,0.00,Wunderground v.1.15,2013-01-23 18:16:00,
2013-01-23 13:26:00,15.4,8.9,30.22,WNW,283,7.0,10.0,75,0.00,,,0.00,Wunderground v.1.15,2013-01-23 18:26:00,
2013-01-23 13:36:00,15.3,9.4,30.21,WSW,256,8.0,8.0,77,0.00,,,0.00,Wunderground v.1.15,2013-01-23 18:36:00,
2013-01-23 13:46:00,15.4,9.5,30.21,WSW,238,8.0,8.0,77,0.00,,,0.00,Wunderground v.1.15,2013-01-23 18:46:00,
2013-01-23 13:56:00,15.8,10.2,30.20,SSW,207,7.0,7.0,78,0.00,,,0.00,Wunderground v.1.15,2013-01-23 18:56:00,
2013-01-23 14:06:00,15.8,10.4,30.19,WSW,240,6.0,6.0,79,0.00,,,0.00,Wunderground v.1.15,2013-01-23 19:06:00,
2013-01-23 14:16:00,16.1,10.4,30.19,SW,214,7.0,9.0,78,0.00,,,0.00,Wunderground v.1.15,2013-01-23 19:16:00,
2013-01-23 14:26:00,16.3,10.4,30.19,West,261,8.0,10.0,77,0.00,,,0.00,Wunderground v.1.15,2013-01-23 19:26:00,
2013-01-23 14:36:00,16.5,10.0,30.18,WSW,246,7.0,15.0,75,0.00,,,0.00,Wunderground v.1.15,2013-01-23 19:36:00,
2013-01-23 14:46:00,16.6,10.1,30.18,WSW,245,9.0,9.0,75,0.00,,,0.00,Wunderground v.1.15,2013-01-23 19:46:00,
2013-01-23 14:56:00,16.5,10.5,30.18,SW,226,7.0,10.0,77,0.00,,,0.00,Wunderground v.1.15,2013-01-23 19:56:00,
2013-01-23 15:06:00,16.7,9.5,30.18,WSW,237,9.0,9.0,73,0.00,,,0.00,Wunderground v.1.15,2013-01-23 20:06:00,
2013-01-23 15:16:00,16.8,9.3,30.18,SSW,201,9.0,9.0,72,0.00,,,0.00,Wunderground v.1.15,2013-01-23 20:16:00,
2013-01-23 15:26:00,16.7,9.5,30.17,SW,225,8.0,8.0,73,0.00,,,0.00,Wunderground v.1.15,2013-01-23 20:26:00,
2013-01-23 15:36:00,16.7,9.5,30.17,SSW,205,8.0,8.0,73,0.00,,,0.00,Wunderground v.1.15,2013-01-23 20:36:00,
2013-01-23 15:46:00,16.7,9.5,30.17,SW,232,8.0,8.0,73,0.00,,,0.00,Wunderground v.1.15,2013-01-23 20:46:00,
2013-01-23 15:56:00,17.2,9.7,30.17,SW,215,6.0,7.0,72,0.00,,,0.00,Wunderground v.1.15,2013-01-23 20:56:00,
2013-01-23 16:06:00,17.0,8.6,30.16,West,265,7.0,7.0,69,0.00,,,0.00,Wunderground v.1.15,2013-01-23 21:06:00,
2013-01-23 16:16:00,16.7,8.6,30.15,West,265,7.0,10.0,70,0.00,,,0.00,Wunderground v.1.15,2013-01-23 21:16:00,
2013-01-23 16:26:00,16.6,7.9,30.15,SW,234,7.0,9.0,68,0.00,,,0.00,Wunderground v.1.15,2013-01-23 21:26:00,
2013-01-23 16:36:00,16.5,7.8,30.15,SW,234,8.0,8.0,68,0.00,,,0.00,Wunderground v.1.15,2013-01-23 21:36:00,
2013-01-23 16:46:00,16.5,7.4,30.15,SW,221,6.0,9.0,67,0.00,,,0.00,Wunderground v.1.15,2013-01-23 21:46:00,
2013-01-23 16:56:00,16.4,7.3,30.14,WSW,239,7.0,9.0,67,0.00,,,0.00,Wunderground v.1.15,2013-01-23 21:56:00,
2013-01-23 17:06:00,16.5,7.4,30.14,West,261,6.0,7.0,67,0.00,,,0.00,Wunderground v.1.15,2013-01-23 22:06:00,
2013-01-23 17:16:00,16.5,6.8,30.14,WSW,253,6.0,6.0,65,0.00,,,0.00,Wunderground v.1.15,2013-01-23 22:16:00,
2013-01-23 17:26:00,16.3,6.6,30.14,SW,221,6.0,6.0,65,0.00,,,0.00,Wunderground v.1.15,2013-01-23 22:26:00,
2013-01-23 17:36:00,16.2,6.1,30.14,WSW,249,6.0,6.0,64,0.00,,,0.00,Wunderground v.1.15,2013-01-23 22:36:00,
2013-01-23 17:46:00,15.9,5.9,30.14,WSW,254,5.0,5.0,64,0.00,,,0.00,Wunderground v.1.15,2013-01-23 22:46:00,
2013-01-23 17:56:00,15.8,5.8,30.14,WSW,247,5.0,5.0,64,0.00,,,0.00,Wunderground v.1.15,2013-01-23 22:56:00,
2013-01-23 18:06:00,15.7,5.7,30.14,WSW,246,4.0,8.0,64,0.00,,,0.00,Wunderground v.1.15,2013-01-23 23:06:00,
2013-01-23 18:16:00,15.7,6.0,30.14,West,266,4.0,4.0,65,0.00,,,0.00,Wunderground v.1.15,2013-01-23 23:16:00,
2013-01-23 18:26:00,15.6,6.3,30.15,WNW,288,3.0,3.0,66,0.00,,,0.00,Wunderground v.1.15,2013-01-23 23:26:00,
2013-01-23 18:36:00,15.6,6.3,30.14,West,263,3.0,3.0,66,0.00,,,0.00,Wunderground v.1.15,2013-01-23 23:36:00,
2013-01-23 18:46:00,15.5,6.5,30.14,West,262,2.0,5.0,67,0.00,,,0.00,Wunderground v.1.15,2013-01-23 23:46:00,
2013-01-23 18:56:00,15.6,6.6,30.14,WSW,252,3.0,3.0,67,0.00,,,0.00,Wunderground v.1.15,2013-01-23 23:56:00,
2013-01-23 19:06:00,15.7,7.0,30.14,WSW,248,4.0,4.0,68,0.00,,,0.00,Wunderground v.1.15,2013-01-24 00:06:00,
2013-01-23 19:16:00,16.0,7.3,30.14,West,259,5.0,6.0,68,0.00,,,0.00,Wunderground v.1.15,2013-01-24 00:16:00,
2013-01-23 19:26:00,16.3,7.6,30.14,WSW,252,6.0,6.0,68,0.00,,,0.00,Wunderground v.1.15,2013-01-24 00:26:00,
2013-01-23 19:36:00,16.4,8.0,30.14,WSW,253,5.0,5.0,69,0.00,,,0.00,Wunderground v.1.15,2013-01-24 00:36:00,
2013-01-23 19:46:00,16.6,8.2,30.13,West,263,5.0,6.0,69,0.00,,,0.00,Wunderground v.1.15,2013-01-24 00:46:00,
2013-01-23 19:56:00,16.6,8.8,30.13,SW,225,3.0,3.0,71,0.00,,,0.00,Wunderground v.1.15,2013-01-24 00:56:00,
2013-01-23 20:06:00,16.4,9.3,30.13,West,259,6.0,12.0,73,0.00,,,0.00,Wunderground v.1.15,2013-01-24 01:06:00,
2013-01-23 20:16:00,16.2,9.7,30.13,WSW,253,6.0,6.0,75,0.00,,,0.00,Wunderground v.1.15,2013-01-24 01:16:00,
2013-01-23 20:26:00,16.0,10.1,30.13,WSW,243,6.0,7.0,77,0.00,,,0.00,Wunderground v.1.15,2013-01-24 01:26:00,
2013-01-23 20:36:00,15.9,10.5,30.13,SW,236,6.0,10.0,79,0.00,,,0.00,Wunderground v.1.15,2013-01-24 01:36:00,
2013-01-23 20:46:00,15.9,10.8,30.13,WNW,282,6.0,6.0,80,0.00,,,0.00,Wunderground v.1.15,2013-01-24 01:46:00,
2013-01-23 20:56:00,15.8,11.0,30.13,SW,229,5.0,5.0,81,0.00,,,0.00,Wunderground v.1.15,2013-01-24 01:56:00,
2013-01-23 21:06:00,15.8,11.0,30.13,WSW,250,6.0,9.0,81,0.00,,,0.00,Wunderground v.1.15,2013-01-24 02:06:00,
2013-01-23 21:16:00,15.8,11.3,30.13,West,261,7.0,7.0,82,0.00,,,0.00,Wunderground v.1.15,2013-01-24 02:16:00,
2013-01-23 21:26:00,15.7,11.7,30.12,WSW,248,5.0,5.0,84,0.00,,,0.00,Wunderground v.1.15,2013-01-24 02:26:00,
2013-01-23 21:36:00,15.6,11.6,30.12,WSW,250,5.0,5.0,84,0.00,,,0.00,Wunderground v.1.15,2013-01-24 02:36:00,
2013-01-23 21:46:00,15.5,11.8,30.12,WSW,248,4.0,5.0,85,0.00,,,0.00,Wunderground v.1.15,2013-01-24 02:46:00,
2013-01-23 21:56:00,15.7,12.3,30.13,SW,225,3.0,3.0,86,0.00,,,0.00,Wunderground v.1.15,2013-01-24 02:56:00,
2013-01-23 22:06:00,15.7,12.3,30.13,WSW,251,3.0,5.0,86,0.00,,,0.00,Wunderground v.1.15,2013-01-24 03:06:00,
2013-01-23 22:16:00,15.7,12.3,30.12,West,278,2.0,2.0,86,0.00,,,0.00,Wunderground v.1.15,2013-01-24 03:16:00,
2013-01-23 22:26:00,15.5,12.1,30.13,West,265,2.0,2.0,86,0.00,,,0.00,Wunderground v.1.15,2013-01-24 03:26:00,
2013-01-23 22:36:00,15.3,11.9,30.13,WSW,252,3.0,4.0,86,0.00,,,0.00,Wunderground v.1.15,2013-01-24 03:36:00,
2013-01-23 22:46:00,15.3,11.9,30.13,West,276,3.0,3.0,86,0.00,,,0.00,Wunderground v.1.15,2013-01-24 03:46:00,
2013-01-23 22:56:00,15.3,11.9,30.12,West,269,2.0,2.0,86,0.00,,,0.00,Wunderground v.1.15,2013-01-24 03:56:00,
2013-01-23 23:05:00,15.3,11.9,30.12,West,263,2.0,2.0,86,0.00,,,0.00,Wunderground v.1.15,2013-01-24 04:05:00,
2013-01-23 23:16:00,15.2,12.0,30.12,WSW,248,2.0,2.0,87,0.00,,,0.00,Wunderground v.1.15,2013-01-24 04:16:00,
2013-01-23 23:26:00,15.2,12.0,30.12,WSW,257,1.0,1.0,87,0.00,,,0.00,Wunderground v.1.15,2013-01-24 04:26:00,
2013-01-23 23:35:00,15.2,12.0,30.13,West,261,1.0,1.0,87,0.00,,,0.00,Wunderground v.1.15,2013-01-24 04:35:00,
2013-01-23 23:46:00,15.1,11.9,30.13,West,261,1.0,1.0,87,0.00,,,0.00,Wunderground v.1.15,2013-01-24 04:46:00,
2013-01-23 23:56:00,15.1,12.2,30.13,West,270,1.0,1.0,88,0.00,,,0.00,Wunderground v.1.15,2013-01-24 04:56:00,